This is the latest recevied weather packets stored in our database for station/object K7FLA. If no packets are shown the sender has not sent any weather packets the latest 10 day(s).
| Time | Temp. | Humidity | Pressure | Rain* | Wind** | Luminosity | Snow |
|---|---|---|---|---|---|---|---|
| 1777946779 | 14.44° C | 59% | 1093.9 hPa | 0 mm | - | 25 W/m² | - |
| 1777946476 | 14.44° C | 59% | 1093.9 hPa | 0 mm | - | 25 W/m² | - |
| 1777946173 | 14.44° C | 59% | 1093.9 hPa | 0 mm | - | 29 W/m² | - |
| 1777945870 | 15° C | 58% | 1093.9 hPa | 0 mm | - | 34 W/m² | - |
| 1777945567 | 15° C | 57% | 1093.8 hPa | 0 mm | - | 41 W/m² | - |
| 1777945264 | 15° C | 56% | 1093.9 hPa | 0 mm | - | 39 W/m² | - |
| 1777944961 | 15.56° C | 55% | 1094.2 hPa | 0 mm | - | 43 W/m² | - |
| 1777944658 | 15.56° C | 53% | 1094 hPa | 0 mm | - | 51 W/m² | - |
| 1777944356 | 16.11° C | 52% | 1093.9 hPa | 0 mm | - | 55 W/m² | - |
| 1777944053 | 16.11° C | 51% | 1093.8 hPa | 0 mm | - | 83 W/m² | - |
| 1777943748 | 16.67° C | 51% | 1094 hPa | 0 mm | - | 85 W/m² | - |
| 1777943446 | 16.67° C | 50% | 1093.8 hPa | 0 mm | - | 119 W/m² | - |
| 1777943141 | 16.11° C | 52% | 1094 hPa | 0 mm | - | 160 W/m² | - |
| 1777942838 | 16.11° C | 51% | 1093.9 hPa | 0 mm | - | 137 W/m² | - |
| 1777942534 | 16.11° C | 51% | 1094.1 hPa | 0 mm | - | 33 W/m² | - |
| 1777942232 | 16.67° C | 49% | 1094 hPa | 0 mm | - | 27 W/m² | - |
| 1777941929 | 16.67° C | 49% | 1094 hPa | 0 mm | - | 27 W/m² | - |
| 1777941626 | 16.67° C | 48% | 1093.9 hPa | 0 mm | - | 47 W/m² | - |
| 1777941323 | 17.22° C | 47% | 1094 hPa | 0 mm | - | 73 W/m² | - |
| 1777941020 | 17.22° C | 46% | 1093.9 hPa | 0 mm | - | 94 W/m² | - |
| 1777940715 | 17.22° C | 46% | 1094.1 hPa | 0 mm | - | 125 W/m² | - |
| 1777940415 | 17.78° C | 44% | 1094.5 hPa | 0 mm | - | 119 W/m² | - |
| 1777940111 | 17.78° C | 44% | 1094.2 hPa | 0 mm | - | 138 W/m² | - |
| 1777939809 | 17.78° C | 43% | 1094.1 hPa | 0 mm | - | 169 W/m² | - |
| 1777939506 | 17.78° C | 42% | 1094.1 hPa | 0 mm | - | 402 W/m² | - |
* Rain latest hour (hover to see other rain measurements)
** Current wind speed in m/s (hover to see current wind gust speed)